Погода в Зиме

Погода в Зиме : погода сейчас, прогноз погоды и архив. Всё, что Вы хотите узнать о погоде в Зиме!

Поиск расширенной информации на нашем сайте:

Другие новости

Новости СМИ2

Главная страница сайта

Новости сайта

03.07.2017

Напоминаем, что на нашем специализированном сайте Метеоцентр.Азия вы можете получить высокодетализированные автоматические прогнозы погоды по пунктам России, СНГ и мира в авиационном формате (включающие направление и скорость ветра, видимость, явления погоды, количество и форму облачности, нижнюю и верхнюю границу облачности).

Рекомендуем: Воздушная завеса Wing E150

Погода в Зиме - сегодня

Время (UTC), дата Ветер
(°,м/с) 
Видим.   Явления Облачность Т
(°С)
Тd
(°С)
f(%) Тe
(°С)
Pmin
(гПа)
dP
(гПа)
Po
(мм)
O2
(г/м3)
Тmin Tmax R s Состояние
почвы
06 19.06.18 120 (ЮВ) 5{10}  20000 м    10/0 верхняя 
[Ci fib]
+29.3 +5.8 23 +29  1002.4  -1.8  714  259           
09 19.06.18 110 (В) 3{10}  20000 м    10/0 верхняя 
[Ci fib]
+30.6 +3.4 18 +31  1000.9  -1.2  713  258           
12 19.06.18 080 (В) 20000 м    10/3 1000 м средняя, верхняя 
[Sc|Ac trans|Ci fib]
+27.3 +8.1 30 +27  1001.1  -1.2  713  260    +31.2       
15 19.06.18 тихо ()   н/о    10/5 1000 м верхняя 
[Sc|Ci fib]
+21.2 +11.1 52 +25  1002  0.1  713  264           
18 19.06.18 100 (В) н/о    9/9 1000 м 
[Sc]
+21.2 +10.5 50 +24  1001.8  -0.2  713  265           
21 19.06.18 090 (В) 20000 м    9/9 1000 м 
[Sc]
+20.2 +9.2 49 +21  1001.5  -0.5  713  266           
00 20.06.18 тихо ()   20000 м    9/9 600 м кучево-дожд. 
[Cb cap]
+19.7 +11 57 +23  1002.5  0.8  713  266  +18.9         
06 20.06.18 160 (Ю) 20000 м  {ливн. осадки}  10/4 1000 м средняя, верхняя 
[Sc|Ac trans|Ci fib]
+22.9 +13.7 56 +31  1001.9  -0.3  713  262           
09 20.06.18 130 (ЮВ) 20000 м    10/0 средняя, верхняя 
[Ac trans|Cs]
+23.5 +14.1 56 +32  1001.4  -0.4  713  262           
12 20.06.18 160 (Ю) 20000 м    10/6 1000 м средняя, верхняя 
[Sc|Ac trans|Ci fib]
+23.8 +15.8 61 +35  1001.6  0.2  713  261    +25.4  0.4     
15 20.06.18 220 (ЮЗ) н/о  в посл. час гроза{ливн. осадки}  9/9 600 м кучево-дожд. 
[Cb cap]
+17.6 +16.3 92 +31  1004.2  1.4  714  267           
18 20.06.18 тихо ()   н/о  {гроза, ливн. осадки}  9/9 1000 м 
[Sc]
+16.6 +15.6 94 +28  1004.9  0.6  715  268           
21 20.06.18 210 (ЮЗ) 20000 м    10/3 1000 м средняя, верхняя 
[Sc|Ac trans|Ci fib]
+16.6 +15.5 93 +29  1005  0.1  715  268           
00 21.06.18 тихо ()   20000 м  гроза, ливневой дождь  10/10 600 м кучево-дожд. 
[Cb cap]
+16.7 +15.5 93 +28  1006.4  1.3  716  268  +16.2      влажная 
03 21.06.18 240 (ЮЗ) 20000 м  в посл. час гроза{ливн. осадки}  9/9 600 м кучево-дожд. 
[Cb cap]
+18.7 +16.6 88 +33  1006.4  0.4  716  266           
06 21.06.18 200 (Ю) 20000 м  {гроза, ливн. осадки}  10/4 600 м верхняя 
[Cu med, cong|Ci fib]
+26 +16.9 57 +40  1003.9  -1.1  715  259           
09 21.06.18 020 (С) 20000 м    8/3 600 м верхняя 
[Cu med, cong|Ci fib]
+28.2 +9.7 31 +30  1002.4  -1.2  714  259           
15 21.06.18 090 (В) н/о    3/1 1000 м средняя, верхняя 
[Sc|Ac trans|Ci fib]
+18.3 +15.9 86 +32  1004.7  0.7  715  266           
18 21.06.18 тихо ()   н/о    10/3 1000 м верхняя 
[Sc|Ci fib]
+15.9 +14.5 91 +25  1006.2  0.9  715  269           
21 21.06.18 340 (С) 20000 м    9/9 1000 м 
[Sc]
+18 +13 73 +25  1007.6  1.7  717  268           
00 22.06.18 300 (СЗ) 10 км  слаб. ливневой дождь  10/10 600 м кучево-дожд. 
[Cb cap]
+15.2 +14.9 98 +26  1009.9  1.7  718  271  +15.2       
06 22.06.18 300 (СЗ) 20000 м  {ливн. осадки}  10/6 1000 м средняя, верхняя 
[Sc|Ac cuf|Ci ing]
+17.4 +14 80 +26  1010.2  -0.2  718  269           
09 22.06.18 300 (СЗ) 20000 м    10/8 600 м верхняя 
[Cu Sc|Ci fib]
+20.3 +14.6 70 +29  1008.9  -0.8  718  266           
12 22.06.18 220 (ЮЗ) 20000 м    10/1 1000 м верхняя 
[Sc diur, vesp|Ci fib]
+22 +14.2 61 +30  1008.5  -0.1  718  265    +22.2     
15 22.06.18 тихо ()   н/о    ясно 
+16.9 +14.6 86 +26  1010.1  0.7  718  269           
Время (UTC), дата Ветер
(°,м/с) 
Видим.   Явления Облачность Т
(°С)
Тd
(°С)
f(%) Тe
(°С)
Pmin
(гПа)
dP
(гПа)
Po
(мм)
O2
(г/м3)
Тmin Tmax R s Состояние
почвы

Для получения пояснительной информации подведите курсор к названию столбца.

ПОГОДА в Зиме - архив

Всё, что Вы хотите узнать о погоде в Зиме - удобно и подробно!

Выберите нужную дату (начиная с 1 января 2015* года) и нажмите кнопку "Найти".
Будут отображены архивные сводки погоды по пункту Зима, начиная с указанной даты.


Отображать данные в формате CSV (для использования в таблицах Excel)


Внимание! Наш архив погоды предназначен исключительно для личного некоммерческого использования в познавательных целях. Если Вам необходимы официальные справки о состоянии погоды (для производственных, юридических, коммерческих и т.п. целей), обращайтесь в органы Росгидромета.

*Примечание: данная дата относится к архиву по метеостанциям СССР (Россия, СНГ, Балтия).
Архив по метеостанциям Зарубежной Европы и Азии (кроме Китая) хранится 10 дней, по другим регионам земного шара (Китай, Африка, Америка, Австралия, Океания) - 1 день.

Зима - район местоположения метеостанции


Название, широта, долгота, высота метеостанции:
Зима 53.9°ш. 102.1°д. 458 м над ур. моря [Российская Федерация]

Дополнительная информация

В oтличие oт бoльшинства пoгoдных сайтoв мы публикуем пoдрoбную метеoинфoрмацию в детальнoм прoфессиoнальнoм фoрмате.

Характеристики температуры и влажнoсти вoздуха измеряются на высoте 2 м в тени вдали oт зданий и деревьев.
Скoрoсть ветра измеряется на высoте 10 м (на урoвне рoста челoвека скoрoсть ветра ниже в 1.5-2 раза). Если метеoстанция нахoдится в гoрoде или в лесу, тo скoрoсть ветра занижена на 2-4 м/с пo сравнению с oткрытым местoм. Скoрoсть ветра над акватoриями крупных рек и oзёр, а также на вершинах хoлмoв на 2-5 м/с выше, чем в oбычных услoвиях.
Атмoсфернoе давление в разных тoчках местнoсти мoжет значительнo oтличаться oт давления на метеoстанции, в зависимoсти oт услoвий рельефа (при пoдъёме на 10 м давление пoнижается примернo на 1 мм рт.ст.).